, MS

(GMT )
Nakika

Weather History for KIKT - January, 2014

Change the Weather History Date:

Wednesday, January 29, 2014

  Actual Average Record
Temperature  
Mean Temperature 44 °F -  
Max Temperature 46 °F - - ()
Min Temperature 41 °F - - ()
Degree Days  
Heating Degree Days 22    
Moisture  
Dew Point 37 °F    
Average Humidity 76    
Maximum Humidity 93    
Minimum Humidity 61    
Precipitation  
Precipitation 0.00 in - - ()
Sea Level Pressure  
Sea Level Pressure 30.25 in    
Wind  
Wind Speed 23 mph (NNE)    
Max Wind Speed 30 mph    
Max Gust Speed 39 mph    
Visibility 7 miles    
Events      
Averages and records for this station are not official NWS values.
T = Trace of Precipitation, MM = Missing Value Source: NWS Daily Summary

Daily Weather History Graph

Daily Weather History Graph

Search for Another Location

Airport or City:

Trip Planner

Search our weather history database for the weather conditions in past years. The results will help you decide how hot, cold, wet, or windy it might be!

Date:

Astronomy

Jan. 29, 2014 Rise Set
Actual Time 6:42 AM CST 5:30 PM CST
Civil Twilight 6:17 AM CST 5:55 PM CST
Nautical Twilight 5:49 AM CST 6:23 PM CST
Astronomical Twilight 5:21 AM CST 6:51 PM CST
Moon 5:18 AM CST (1/29) 4:29 PM CST (1/29)
Length of Visible Light 11h 37m
Length of Day
10h 47m
Waning Crescent, 2% of the Moon is Illuminated
Jan 29
Waning Crescent
Jan 30
New
Feb 6
First Quarter
Feb 14
Full
Feb 22
Last Quarter

Hourly Weather History & Observations

Time (CST) Temp. Windchill Dew Point Humidity Pressure Visibility Wind Dir Wind Speed Gust Speed Precip Events Conditions
12:15 AM 46.4 °F 38.3 °F 44.6 °F 93% 30.16 in 3.0 mi North 23.0 mph - N/A   Overcast
12:35 AM 46.4 °F 38.7 °F 44.6 °F 93% 30.17 in 6.0 mi North 20.7 mph 29.9 mph N/A   Overcast
12:55 AM 46.4 °F 38.5 °F 44.6 °F 93% 30.17 in 7.0 mi North 21.9 mph 29.9 mph N/A   Overcast
1:15 AM 46.4 °F 37.2 °F 44.6 °F 93% 30.17 in 8.0 mi NNE 29.9 mph - N/A   Overcast
1:35 AM 46.4 °F 39.5 °F 42.8 °F 87% 30.18 in 7.0 mi North 17.3 mph 29.9 mph N/A   Overcast
1:55 AM 46.4 °F 37.9 °F 42.8 °F 87% 30.16 in 6.0 mi North 25.3 mph 32.2 mph N/A   Overcast
2:15 AM 46.4 °F 38.7 °F 42.8 °F 87% 30.16 in 6.0 mi North 20.7 mph 31.1 mph N/A   Overcast
2:35 AM 46.4 °F 37.5 °F 42.8 °F 87% 30.15 in 3.0 mi NNE 27.6 mph - N/A   Overcast
2:55 AM 46.4 °F 37.7 °F 42.8 °F 87% 30.15 in 6.0 mi NNE 26.5 mph 32.2 mph N/A   Overcast
3:15 AM 46.4 °F 39.8 °F 42.8 °F 87% 30.17 in 3.0 mi North 16.1 mph 27.6 mph N/A   Overcast
3:35 AM 46.4 °F 38.1 °F 42.8 °F 87% 30.18 in 2.5 mi North 24.2 mph 31.1 mph N/A   Overcast
3:55 AM 46.4 °F 38.1 °F 42.8 °F 87% 30.17 in 4.0 mi North 24.2 mph 35.7 mph N/A   Overcast
4:15 AM 46.4 °F 38.5 °F 41.0 °F 81% 30.18 in 6.0 mi North 21.9 mph 31.1 mph N/A   Overcast
4:35 AM 44.6 °F 35.7 °F 41.0 °F 87% 30.19 in 6.0 mi NNE 24.2 mph 34.5 mph N/A   Overcast
4:55 AM 44.6 °F 36.1 °F 41.0 °F 87% 30.19 in 7.0 mi North 21.9 mph 33.4 mph N/A   Overcast
5:15 AM 44.6 °F 35.1 °F 41.0 °F 87% 30.20 in 9.0 mi North 27.6 mph - N/A   Overcast
5:35 AM 44.6 °F 35.7 °F 39.2 °F 81% 30.20 in 8.0 mi North 24.2 mph 39.1 mph N/A   Overcast
5:55 AM 44.6 °F 35.3 °F 39.2 °F 81% 30.20 in 5.0 mi North 26.5 mph 35.7 mph N/A   Haze
6:15 AM 42.8 °F 32.3 °F 37.4 °F 81% 30.22 in 9.0 mi NNE 29.9 mph 35.7 mph N/A   Overcast
6:35 AM 42.8 °F 32.9 °F 37.4 °F 81% 30.22 in 10.0 mi NNE 26.5 mph 34.5 mph N/A   Overcast
6:55 AM 42.8 °F 33.3 °F 37.4 °F 81% 30.25 in 10.0 mi North 24.2 mph 34.5 mph N/A   Overcast
7:15 AM 42.8 °F 32.7 °F 35.6 °F 76% 30.24 in 9.0 mi NNE 27.6 mph 35.7 mph N/A   Overcast
7:35 AM 42.8 °F 32.7 °F 37.4 °F 81% 30.26 in 8.0 mi NNE 27.6 mph 34.5 mph N/A   Overcast
7:55 AM 42.8 °F 32.7 °F 37.4 °F 81% 30.28 in 3.0 mi NNE 27.6 mph 33.4 mph N/A   Haze
8:15 AM 42.8 °F 32.5 °F 35.6 °F 76% 30.27 in 3.0 mi NNE 28.8 mph 34.5 mph N/A   Haze
8:35 AM 42.8 °F 33.1 °F 35.6 °F 76% 30.28 in 4.0 mi North 25.3 mph 34.5 mph N/A   Haze
8:55 AM 42.8 °F 33.5 °F 37.4 °F 81% 30.31 in 3.0 mi North 23.0 mph 34.5 mph N/A   Haze
9:15 AM 42.8 °F 33.5 °F 37.4 °F 81% 30.32 in 3.0 mi North 23.0 mph 29.9 mph N/A   Haze
9:35 AM 41.0 °F 30.7 °F 35.6 °F 81% 30.31 in 3.0 mi North 25.3 mph 34.5 mph N/A   Haze
9:55 AM 41.0 °F 30.2 °F 35.6 °F 81% 30.31 in 4.0 mi NNE 27.6 mph - N/A   Haze
10:15 AM 41.0 °F 30.5 °F 35.6 °F 81% 30.30 in 3.0 mi NNE 26.5 mph 33.4 mph N/A   Haze
10:35 AM 41.0 °F 30.7 °F 33.8 °F 76% 30.29 in 7.0 mi NNE 25.3 mph 35.7 mph N/A   Mostly Cloudy
10:55 AM 42.8 °F 34.0 °F 35.6 °F 76% 30.31 in 7.0 mi North 20.7 mph 31.1 mph N/A   Mostly Cloudy
11:15 AM 42.8 °F 33.3 °F 37.4 °F 81% 30.31 in 5.0 mi North 24.2 mph 33.4 mph N/A   Haze
11:35 AM 42.8 °F 33.3 °F 37.4 °F 81% 30.28 in 2.0 mi North 24.2 mph 33.4 mph N/A   Haze
11:55 AM 41.0 °F 30.9 °F 35.6 °F 81% 30.29 in 4.0 mi NNE 24.2 mph 31.1 mph N/A   Haze
12:15 PM 41.0 °F 30.7 °F 35.6 °F 81% 30.29 in 7.0 mi NNE 25.3 mph - N/A   Mostly Cloudy
12:35 PM 42.8 °F 34.3 °F 33.8 °F 70% 30.27 in 7.0 mi NNE 19.6 mph 28.8 mph N/A   Mostly Cloudy
12:55 PM 42.8 °F 33.5 °F 35.6 °F 76% 30.27 in 8.0 mi NNE 23.0 mph 29.9 mph N/A   Mostly Cloudy
1:15 PM 42.8 °F 34.5 °F 35.6 °F 76% 30.27 in 8.0 mi North 18.4 mph 26.5 mph N/A   Mostly Cloudy
1:35 PM 42.8 °F 35.1 °F 33.8 °F 70% 30.26 in 9.0 mi North 16.1 mph 26.5 mph N/A   Mostly Cloudy
1:55 PM 42.8 °F 34.3 °F 33.8 °F 70% 30.26 in 10.0 mi North 19.6 mph 28.8 mph N/A   Mostly Cloudy
2:15 PM 42.8 °F 33.1 °F 33.8 °F 70% 30.25 in 9.0 mi NNE 25.3 mph 31.1 mph N/A   Mostly Cloudy
2:35 PM 42.8 °F 33.8 °F 35.6 °F 76% 30.23 in 10.0 mi NNE 21.9 mph 29.9 mph N/A   Mostly Cloudy
2:55 PM 42.8 °F 35.1 °F 33.8 °F 70% 30.24 in 7.0 mi NE 16.1 mph 27.6 mph N/A   Overcast
3:15 PM 41.0 °F 31.4 °F 33.8 °F 76% 30.25 in 6.0 mi NNE 21.9 mph 28.8 mph N/A   Haze
3:35 PM 42.8 °F 35.1 °F 35.6 °F 76% 30.25 in 8.0 mi North 16.1 mph 29.9 mph N/A   Overcast
3:55 PM 41.0 °F 30.9 °F 33.8 °F 76% 30.25 in 8.0 mi NNE 24.2 mph - N/A   Mostly Cloudy
4:15 PM 41.0 °F 30.9 °F 33.8 °F 76% 30.24 in 8.0 mi NNE 24.2 mph 32.2 mph N/A   Mostly Cloudy
4:35 PM 42.8 °F 33.8 °F 33.8 °F 70% 30.24 in 10.0 mi NNE 21.9 mph 32.2 mph N/A   Mostly Cloudy
4:55 PM 42.8 °F 33.5 °F 33.8 °F 70% 30.24 in 10.0 mi NNE 23.0 mph 32.2 mph N/A   Overcast
5:15 PM 42.8 °F 33.8 °F 32.0 °F 66% 30.27 in 10.0 mi NNE 21.9 mph 29.9 mph N/A   Overcast
5:35 PM 42.8 °F 34.5 °F 33.8 °F 70% 30.27 in 10.0 mi NNE 18.4 mph 27.6 mph N/A   Overcast
5:55 PM 42.8 °F 34.5 °F 32.0 °F 66% 30.27 in 10.0 mi NNE 18.4 mph 27.6 mph N/A   Overcast
6:15 PM 42.8 °F 34.0 °F 30.2 °F 61% 30.26 in 10.0 mi NNE 20.7 mph 27.6 mph N/A   Overcast
6:35 PM 42.8 °F 35.1 °F 33.8 °F 70% 30.27 in 10.0 mi NNE 16.1 mph 29.9 mph N/A   Mostly Cloudy
6:55 PM 44.6 °F 36.1 °F 33.8 °F 66% 30.28 in 10.0 mi NNE 21.9 mph - N/A   Overcast
7:15 PM 44.6 °F 37.2 °F 33.8 °F 66% 30.27 in 10.0 mi NE 17.3 mph 26.5 mph N/A   Overcast
7:35 PM 44.6 °F 37.8 °F 33.8 °F 66% 30.27 in 10.0 mi NE 15.0 mph 28.8 mph N/A   Overcast
7:55 PM 44.6 °F 36.6 °F 35.6 °F 71% 30.27 in 10.0 mi NNE 19.6 mph 27.6 mph N/A   Overcast
8:15 PM 44.6 °F 36.9 °F 33.8 °F 66% 30.29 in 10.0 mi NNE 18.4 mph 26.5 mph N/A   Overcast
8:35 PM 44.6 °F 36.9 °F 33.8 °F 66% 30.30 in 10.0 mi NNE 18.4 mph - N/A   Overcast
8:55 PM 44.6 °F 37.2 °F 32.0 °F 61% 30.30 in 10.0 mi North 17.3 mph 25.3 mph N/A   Overcast
9:15 PM 44.6 °F 36.6 °F 33.8 °F 66% 30.29 in 10.0 mi NNE 19.6 mph 27.6 mph N/A   Overcast
9:35 PM 44.6 °F 36.6 °F 33.8 °F 66% 30.30 in 10.0 mi NNE 19.6 mph 31.1 mph N/A   Overcast
9:55 PM 44.6 °F 36.4 °F 35.6 °F 71% 30.30 in 10.0 mi NNE 20.7 mph - N/A   Overcast
10:15 PM 44.6 °F 36.9 °F 33.8 °F 66% 30.30 in 10.0 mi NNE 18.4 mph 26.5 mph N/A   Overcast
10:35 PM 44.6 °F 38.8 °F 32.0 °F 61% 30.31 in 10.0 mi NE 11.5 mph 21.9 mph N/A   Mostly Cloudy
10:55 PM 44.6 °F 37.4 °F 35.6 °F 71% 30.30 in 10.0 mi NNE 16.1 mph 25.3 mph N/A   Overcast
11:15 PM 44.6 °F 37.4 °F 33.8 °F 66% 30.28 in 10.0 mi NNE 16.1 mph 23.0 mph N/A   Overcast
11:35 PM 44.6 °F 39.2 °F 33.8 °F 66% 30.27 in 10.0 mi NE 10.4 mph 21.9 mph N/A   Overcast
11:55 PM 44.6 °F 38.1 °F 33.8 °F 66% 30.26 in 10.0 mi NE 13.8 mph 25.3 mph N/A   Overcast